EW2563 Weather Reports


Display with metric or nautical units.
time (UTC)temp
F
wind
direction
speed
MPH
gust
MPH
rain 1hr
in
rain 24hr
in
rain mn
in
humidity
%
barometer
mb
20260504044552 44 243 0.0 1.0 0.00 0.00 0.00 65 1012.1
20260504043053 43 265 0.0 1.0 0.00 0.00 0.00 70 1012.0
20260504041557 43 270 1.0 2.0 0.00 0.00 0.00 68 1011.9
20260504034601 45 259 0.0 1.0 0.00 0.00 0.00 63 1011.8
20260504033113 45 264 0.0 1.0 0.00 0.00 0.00 65 1011.8
20260504031605 45 264 0.0 1.0 0.00 0.00 0.00 65 1011.7
20260504030008 45 259 1.0 1.0 0.00 0.00 0.00 65 1011.8
20260504024533 46 266 0.0 1.0 0.00 0.00 0.00 64 1011.8
20260504023015 47 266 0.0 1.0 0.00 0.00 0.00 60 1011.7
20260504021528 48 264 0.0 1.0 0.00 0.00 0.00 56 1011.7
20260504020047 48 265 0.0 1.0 0.00 0.00 0.00 55 1011.6
20260504014547 50 271 0.0 1.0 0.00 0.00 0.00 54 1011.7
20260504013104 51 273 0.0 1.0 0.00 0.00 0.00 49 1011.5
20260504011553 52 281 0.0 2.0 0.00 0.00 0.00 48 1011.4
20260504010059 54 192 0.0 3.0 0.00 0.00 0.00 43 1011.2
20260504004623 54 180 0.0 3.0 0.00 0.00 0.00 43 1011.1
20260504003004 55 210 0.0 4.0 0.00 0.00 0.00 42 1010.9
20260504001514 55 258 1.0 5.0 0.00 0.00 0.00 41 1010.8
20260504000017 56 244 1.0 4.0 0.00 0.00 0.00 41 1010.7
20260503234530 57 150 0.0 5.0 0.00 0.00 0.00 39 1010.7
20260503233044 59 245 1.0 5.0 0.00 0.00 0.00 36 1010.6
20260503231551 59 287 3.0 7.0 0.00 0.00 0.00 34 1010.5
20260503230051 60 214 2.0 6.0 0.00 0.00 0.00 35 1010.5
20260503224549 60 257 2.0 8.0 0.00 0.00 0.00 35 1010.4
20260503223052 60 306 4.0 8.0 0.00 0.00 0.00 34 1010.4
20260503221554 59 259 5.0 13.0 0.00 0.00 0.00 33 1010.5
20260503220058 59 274 5.0 13.0 0.00 0.00 0.00 34 1010.5
20260503213006 60 226 7.0 14.0 0.00 0.00 0.00 34 1010.4
20260503211504 59 295 4.0 14.0 0.00 0.00 0.00 36 1010.4
20260503210006 59 267 5.0 15.0 0.00 0.00 0.00 34 1010.4
20260503204519 60 233 6.0 15.0 0.00 0.00 0.00 33 1010.4
20260503203023 59 266 9.0 19.0 0.00 0.00 0.00 33 1010.4
20260503201525 60 279 4.0 14.0 0.00 0.00 0.00 34 1010.5
20260503200033 59 293 5.0 13.0 0.00 0.00 0.00 35 1010.5
20260503194548 58 347 6.0 18.0 0.00 0.00 0.00 35 1010.8
20260503193054 58 293 5.0 12.0 0.00 0.00 0.00 33 1011.0
20260503191548 58 287 2.0 9.0 0.00 0.00 0.00 35 1011.1
20260503184516 57 243 7.0 16.0 0.00 0.00 0.00 36 1011.3
20260503183027 56 277 4.0 10.0 0.00 0.00 0.00 36 1011.5
20260503181528 56 259 3.0 12.0 0.00 0.00 0.00 35 1011.6
20260503180032 56 257 8.0 21.0 0.00 0.00 0.00 34 1011.9
20260503174545 56 272 3.0 10.0 0.00 0.00 0.00 37 1012.1
20260503173049 55 315 2.0 17.0 0.00 0.00 0.00 37 1012.2
20260503171548 54 315 5.0 11.0 0.00 0.00 0.00 38 1012.4
20260503160110 51 269 3.0 12.0 0.00 0.00 0.00 41 1013.3
20260503081501 39 269 0.0 3.0 0.00 0.00 0.00 73 1012.9
20260503071532 40 349 1.0 3.0 0.00 0.00 0.00 69 1012.6
20260503054554 43 29 3.0 8.0 0.00 0.03 0.00 64 1012.7
20260503053055 43 45 2.0 4.0 0.00 0.03 0.00 63 1012.8
20260503051555 43 32 2.0 6.0 0.00 0.03 0.00 62 1012.9
20260503050004 43 321 3.0 9.0 0.00 0.03 0.00 60 1013.0